Year,Month,Day,Hour,Minute,Value (Times are PST for temperature in C)
2017,05,26,00,00,11.80
2017,05,26,00,01,11.80
2017,05,26,00,02,11.80
2017,05,26,00,03,11.80
2017,05,26,00,04,11.80
2017,05,26,00,05,11.80
2017,05,26,00,06,11.80
2017,05,26,00,07,11.80
2017,05,26,00,08,11.80
2017,05,26,00,09,11.70
2017,05,26,00,10,11.70
2017,05,26,00,11,11.70
2017,05,26,00,12,11.70
2017,05,26,00,13,11.60
2017,05,26,00,14,11.60
2017,05,26,00,15,11.60
2017,05,26,00,16,11.60
2017,05,26,00,17,11.60
2017,05,26,00,18,11.60
2017,05,26,00,19,11.50
2017,05,26,00,20,11.50
2017,05,26,00,21,11.50
2017,05,26,00,22,11.40
2017,05,26,00,23,11.40
2017,05,26,00,24,11.40
2017,05,26,00,25,11.40
2017,05,26,00,26,11.40
2017,05,26,00,27,11.30
2017,05,26,00,28,11.30
2017,05,26,00,29,11.30
2017,05,26,00,30,11.30
2017,05,26,00,31,11.30
2017,05,26,00,32,11.30
2017,05,26,00,33,11.20
2017,05,26,00,34,11.20
2017,05,26,00,35,11.20
2017,05,26,00,36,11.20
2017,05,26,00,37,11.20
2017,05,26,00,38,11.20
2017,05,26,00,39,11.20
2017,05,26,00,40,11.20
2017,05,26,00,41,11.20
2017,05,26,00,42,11.10
2017,05,26,00,43,11.10
2017,05,26,00,44,11.10
2017,05,26,00,45,11.10
2017,05,26,00,46,11.10
2017,05,26,00,47,11.10
2017,05,26,00,48,11.10
2017,05,26,00,49,11.10
2017,05,26,00,50,11.10
2017,05,26,00,51,11.10
2017,05,26,00,52,11.00
2017,05,26,00,53,11.00
2017,05,26,00,54,11.00
2017,05,26,00,55,10.90
2017,05,26,00,56,10.90
2017,05,26,00,57,10.90
2017,05,26,00,58,10.90
2017,05,26,00,59,10.90
2017,05,26,01,00,10.90
2017,05,26,01,01,10.90
2017,05,26,01,02,10.90
2017,05,26,01,03,10.90
2017,05,26,01,04,10.80
2017,05,26,01,05,10.80
2017,05,26,01,06,10.80
2017,05,26,01,07,10.80
2017,05,26,01,08,10.80
2017,05,26,01,09,10.70
2017,05,26,01,10,10.70
2017,05,26,01,11,10.70
2017,05,26,01,12,10.70
2017,05,26,01,13,10.70
2017,05,26,01,14,10.70
2017,05,26,01,15,10.70
2017,05,26,01,16,10.70
2017,05,26,01,17,10.70
2017,05,26,01,18,10.70
2017,05,26,01,19,10.70
2017,05,26,01,20,10.70
2017,05,26,01,21,10.60
2017,05,26,01,22,10.60
2017,05,26,01,23,10.60
2017,05,26,01,24,10.60
2017,05,26,01,25,10.60
2017,05,26,01,26,10.50
2017,05,26,01,27,10.50
2017,05,26,01,28,10.50
2017,05,26,01,29,10.40
2017,05,26,01,30,10.40
2017,05,26,01,31,10.40
2017,05,26,01,32,10.40
2017,05,26,01,33,10.40
2017,05,26,01,34,10.40
2017,05,26,01,35,10.40
2017,05,26,01,36,10.40
2017,05,26,01,37,10.40
2017,05,26,01,38,10.30
2017,05,26,01,39,10.30
2017,05,26,01,40,10.30
2017,05,26,01,41,10.30
2017,05,26,01,42,10.30
2017,05,26,01,43,10.30
2017,05,26,01,44,10.30
2017,05,26,01,45,10.30
2017,05,26,01,46,10.30
2017,05,26,01,47,10.30
2017,05,26,01,48,10.30
2017,05,26,01,49,10.30
2017,05,26,01,50,10.30
2017,05,26,01,51,10.30
2017,05,26,01,52,10.30
2017,05,26,01,53,10.20
2017,05,26,01,54,10.20
2017,05,26,01,55,10.30
2017,05,26,01,56,10.20
2017,05,26,01,57,10.20
2017,05,26,01,58,10.20
2017,05,26,01,59,10.20
2017,05,26,02,00,10.20
2017,05,26,02,01,10.20
2017,05,26,02,02,10.20
2017,05,26,02,03,10.20
2017,05,26,02,04,10.10
2017,05,26,02,05,10.10
2017,05,26,02,06,10.10
2017,05,26,02,07,10.10
2017,05,26,02,08,10.10
2017,05,26,02,09,10.10
2017,05,26,02,10,10.10
2017,05,26,02,11,10.10
2017,05,26,02,12,10.00
2017,05,26,02,13,10.10
2017,05,26,02,14,10.10
2017,05,26,02,15,10.10
2017,05,26,02,16,10.10
2017,05,26,02,17,10.10
2017,05,26,02,18,10.00
2017,05,26,02,19,10.00
2017,05,26,02,20,10.00
2017,05,26,02,21,10.00
2017,05,26,02,22,9.90
2017,05,26,02,23,9.90
2017,05,26,02,24,9.90
2017,05,26,02,25,9.90
2017,05,26,02,26,9.90
2017,05,26,02,27,9.80
2017,05,26,02,28,9.80
2017,05,26,02,29,9.80
2017,05,26,02,30,9.80
2017,05,26,02,31,9.80
2017,05,26,02,32,9.80
2017,05,26,02,33,9.80
2017,05,26,02,34,9.80
2017,05,26,02,35,9.80
2017,05,26,02,36,9.80
2017,05,26,02,37,9.80
2017,05,26,02,38,9.80
2017,05,26,02,39,9.80
2017,05,26,02,40,9.80
2017,05,26,02,41,9.80
2017,05,26,02,42,9.80
2017,05,26,02,43,9.80
2017,05,26,02,44,9.80
2017,05,26,02,45,9.80
2017,05,26,02,46,9.80
2017,05,26,02,47,9.80
2017,05,26,02,48,9.80
2017,05,26,02,49,9.80
2017,05,26,02,50,9.80
2017,05,26,02,51,9.70
2017,05,26,02,52,9.70
2017,05,26,02,53,9.80
2017,05,26,02,54,9.80
2017,05,26,02,55,9.80
2017,05,26,02,56,9.80
2017,05,26,02,57,9.80
2017,05,26,02,58,9.80
2017,05,26,02,59,9.80
2017,05,26,03,00,9.80
2017,05,26,03,01,9.80
2017,05,26,03,02,9.80
2017,05,26,03,03,9.80
2017,05,26,03,04,9.80
2017,05,26,03,05,9.80
2017,05,26,03,06,9.80
2017,05,26,03,07,9.80
2017,05,26,03,08,9.80
2017,05,26,03,09,9.80
2017,05,26,03,10,9.80
2017,05,26,03,11,9.80
2017,05,26,03,12,9.70
2017,05,26,03,13,9.70
2017,05,26,03,14,9.70
2017,05,26,03,15,9.70
2017,05,26,03,16,9.70
2017,05,26,03,17,9.70
2017,05,26,03,18,9.70
2017,05,26,03,19,9.70
2017,05,26,03,20,9.70
2017,05,26,03,21,9.70
2017,05,26,03,22,9.60
2017,05,26,03,23,9.60
2017,05,26,03,24,9.60
2017,05,26,03,25,9.60
2017,05,26,03,26,9.60
2017,05,26,03,27,9.60
2017,05,26,03,28,9.60
2017,05,26,03,29,9.60
2017,05,26,03,30,9.60
2017,05,26,03,31,9.60
2017,05,26,03,32,9.50
2017,05,26,03,33,9.50
2017,05,26,03,34,9.40
2017,05,26,03,35,9.40
2017,05,26,03,36,9.40
2017,05,26,03,37,9.40
2017,05,26,03,38,9.40
2017,05,26,03,39,9.40
2017,05,26,03,40,9.50
2017,05,26,03,41,9.50
2017,05,26,03,42,9.60
2017,05,26,03,43,9.60
2017,05,26,03,44,9.60
2017,05,26,03,45,9.60
2017,05,26,03,46,9.50
2017,05,26,03,47,9.50
2017,05,26,03,48,9.50
2017,05,26,03,49,9.40
2017,05,26,03,50,9.40
2017,05,26,03,51,9.40
2017,05,26,03,52,9.40
2017,05,26,03,53,9.30
2017,05,26,03,54,9.30
2017,05,26,03,55,9.30
2017,05,26,03,56,9.30
2017,05,26,03,57,9.30
2017,05,26,03,58,9.30
2017,05,26,03,59,9.30
2017,05,26,04,00,9.30
2017,05,26,04,01,9.30
2017,05,26,04,02,9.30
2017,05,26,04,03,9.30
2017,05,26,04,04,9.30
2017,05,26,04,05,9.30
2017,05,26,04,06,9.30
2017,05,26,04,07,9.30
2017,05,26,04,08,9.20
2017,05,26,04,09,9.20
2017,05,26,04,10,9.20
2017,05,26,04,11,9.20
2017,05,26,04,12,9.20
2017,05,26,04,13,9.20
2017,05,26,04,14,9.20
2017,05,26,04,15,9.10
2017,05,26,04,16,9.10
2017,05,26,04,17,9.10
2017,05,26,04,18,9.10
2017,05,26,04,19,9.00
2017,05,26,04,20,9.00
2017,05,26,04,21,9.00
2017,05,26,04,22,9.00
2017,05,26,04,23,9.00
2017,05,26,04,24,9.00
2017,05,26,04,25,9.00
2017,05,26,04,26,9.00
2017,05,26,04,27,9.00
2017,05,26,04,28,9.00
2017,05,26,04,29,9.00
2017,05,26,04,30,9.00
2017,05,26,04,31,9.00
2017,05,26,04,32,9.00
2017,05,26,04,33,9.00
2017,05,26,04,34,9.00
2017,05,26,04,35,8.90
2017,05,26,04,36,8.90
2017,05,26,04,37,8.90
2017,05,26,04,38,8.90
2017,05,26,04,39,8.90
2017,05,26,04,40,8.90
2017,05,26,04,41,8.80
2017,05,26,04,42,8.80
2017,05,26,04,43,8.80
2017,05,26,04,44,8.80
2017,05,26,04,45,8.80
2017,05,26,04,46,8.80
2017,05,26,04,47,8.80
2017,05,26,04,48,8.80
2017,05,26,04,49,8.80
2017,05,26,04,50,8.80
2017,05,26,04,51,8.80
2017,05,26,04,52,8.90
2017,05,26,04,53,8.90
2017,05,26,04,54,8.90
2017,05,26,04,55,8.90
2017,05,26,04,56,8.90
2017,05,26,04,57,8.90
2017,05,26,04,58,9.00
2017,05,26,04,59,9.00
2017,05,26,05,00,9.00
2017,05,26,05,01,9.10
2017,05,26,05,02,9.10
2017,05,26,05,03,9.10
2017,05,26,05,04,9.10
2017,05,26,05,05,9.00
2017,05,26,05,06,9.00
2017,05,26,05,07,9.00
2017,05,26,05,08,9.00
2017,05,26,05,09,9.00
2017,05,26,05,10,9.00
2017,05,26,05,11,9.00
2017,05,26,05,12,9.00
2017,05,26,05,13,9.00
2017,05,26,05,14,9.00
2017,05,26,05,15,8.90
2017,05,26,05,16,8.90
2017,05,26,05,17,8.90
2017,05,26,05,18,8.90
2017,05,26,05,19,8.90
2017,05,26,05,20,8.90
2017,05,26,05,21,8.90
2017,05,26,05,22,8.80
2017,05,26,05,23,8.80
2017,05,26,05,24,8.80
2017,05,26,05,25,8.80
2017,05,26,05,26,8.80
2017,05,26,05,27,8.80
2017,05,26,05,28,8.80
2017,05,26,05,29,8.80
2017,05,26,05,30,8.80
2017,05,26,05,31,8.80
2017,05,26,05,32,8.80
2017,05,26,05,33,8.80
2017,05,26,05,34,8.80
2017,05,26,05,35,8.80
2017,05,26,05,36,8.80
2017,05,26,05,37,8.80
2017,05,26,05,38,8.80
2017,05,26,05,39,8.80
2017,05,26,05,40,8.80
2017,05,26,05,41,8.80
2017,05,26,05,42,8.80
2017,05,26,05,43,8.80
2017,05,26,05,44,8.80
2017,05,26,05,45,8.80
2017,05,26,05,46,8.80
2017,05,26,05,47,8.80
2017,05,26,05,48,8.80
2017,05,26,05,49,8.80
2017,05,26,05,50,8.90
2017,05,26,05,51,8.90
2017,05,26,05,52,8.90
2017,05,26,05,53,8.90
2017,05,26,05,54,8.90
2017,05,26,05,55,8.90
2017,05,26,05,56,8.90
2017,05,26,05,57,8.90
2017,05,26,05,58,8.90
2017,05,26,05,59,8.90
2017,05,26,06,00,8.90
2017,05,26,06,01,8.90
2017,05,26,06,02,8.90
2017,05,26,06,03,9.00
2017,05,26,06,04,9.00
2017,05,26,06,05,9.10
2017,05,26,06,06,9.10
2017,05,26,06,07,9.10
2017,05,26,06,08,9.10
2017,05,26,06,09,9.10
2017,05,26,06,10,9.00
2017,05,26,06,11,9.10
2017,05,26,06,12,9.10
2017,05,26,06,13,9.10
2017,05,26,06,14,9.10
2017,05,26,06,15,9.10
2017,05,26,06,16,9.10
2017,05,26,06,17,9.10
2017,05,26,06,18,9.10
2017,05,26,06,19,9.10
2017,05,26,06,20,9.10
2017,05,26,06,21,9.20
2017,05,26,06,22,9.20
2017,05,26,06,23,9.20
2017,05,26,06,24,9.30
2017,05,26,06,25,9.30
2017,05,26,06,26,9.40
2017,05,26,06,27,9.40
2017,05,26,06,28,9.50
2017,05,26,06,29,9.50
2017,05,26,06,30,9.60
2017,05,26,06,31,9.60
2017,05,26,06,32,9.70
2017,05,26,06,33,9.70
2017,05,26,06,34,9.80
2017,05,26,06,35,9.80
2017,05,26,06,36,9.80
2017,05,26,06,37,9.90
2017,05,26,06,38,10.00
2017,05,26,06,39,10.00
2017,05,26,06,40,10.10
2017,05,26,06,41,10.20
2017,05,26,06,42,10.30
2017,05,26,06,43,10.30
2017,05,26,06,44,10.40
2017,05,26,06,45,10.50
2017,05,26,06,46,10.60
2017,05,26,06,47,10.60
2017,05,26,06,48,10.70
2017,05,26,06,49,10.80
2017,05,26,06,50,10.90
2017,05,26,06,51,11.00
2017,05,26,06,52,11.10
2017,05,26,06,53,11.10
2017,05,26,06,54,11.20
2017,05,26,06,55,11.30
2017,05,26,06,56,11.40
2017,05,26,06,57,11.50
2017,05,26,06,58,11.60
2017,05,26,06,59,11.70
2017,05,26,07,00,11.80
2017,05,26,07,01,11.90
2017,05,26,07,02,12.10
2017,05,26,07,03,12.20
2017,05,26,07,04,12.30
2017,05,26,07,05,12.30
2017,05,26,07,06,12.40
2017,05,26,07,07,12.40
2017,05,26,07,08,12.40
2017,05,26,07,09,12.50
2017,05,26,07,10,12.50
2017,05,26,07,11,12.50
2017,05,26,07,12,12.50
2017,05,26,07,13,12.50
2017,05,26,07,14,12.60
2017,05,26,07,15,12.60
2017,05,26,07,16,12.60
2017,05,26,07,17,12.70
2017,05,26,07,18,12.70
2017,05,26,07,19,12.70
2017,05,26,07,20,12.70
2017,05,26,07,21,12.80
2017,05,26,07,22,12.80
2017,05,26,07,23,12.80
2017,05,26,07,24,12.90
2017,05,26,07,25,12.90
2017,05,26,07,26,12.90
2017,05,26,07,27,13.00
2017,05,26,07,28,13.00
2017,05,26,07,29,13.10
2017,05,26,07,30,13.10
2017,05,26,07,31,13.10
2017,05,26,07,32,13.20
2017,05,26,07,33,13.20
2017,05,26,07,34,13.20
2017,05,26,07,35,13.20
2017,05,26,07,36,13.20
2017,05,26,07,37,13.30
2017,05,26,07,38,13.30
2017,05,26,07,39,13.30
2017,05,26,07,40,13.40
2017,05,26,07,41,13.50
2017,05,26,07,42,13.50
2017,05,26,07,43,13.60
2017,05,26,07,44,13.70
2017,05,26,07,45,13.70
2017,05,26,07,46,13.80
2017,05,26,07,47,13.90
2017,05,26,07,48,13.90
2017,05,26,07,49,14.00
2017,05,26,07,50,14.00
2017,05,26,07,51,14.00
2017,05,26,07,52,14.00
2017,05,26,07,53,14.10
2017,05,26,07,54,14.10
2017,05,26,07,55,14.10
2017,05,26,07,56,14.20
2017,05,26,07,57,14.30
2017,05,26,07,58,14.40
2017,05,26,07,59,14.40
2017,05,26,08,00,14.50
2017,05,26,08,01,14.60
2017,05,26,08,02,14.60
2017,05,26,08,03,14.70
2017,05,26,08,04,14.70
2017,05,26,08,05,14.70
2017,05,26,08,06,14.80
2017,05,26,08,07,14.80
2017,05,26,08,08,14.90
2017,05,26,08,09,15.00
2017,05,26,08,10,15.10
2017,05,26,08,11,15.20
2017,05,26,08,12,15.30
2017,05,26,08,13,15.50
2017,05,26,08,14,15.60
2017,05,26,08,15,15.70
2017,05,26,08,16,15.80
2017,05,26,08,17,15.80
2017,05,26,08,18,15.90
2017,05,26,08,19,16.10
2017,05,26,08,20,16.10
2017,05,26,08,21,16.20
2017,05,26,08,22,16.20
2017,05,26,08,23,16.30
2017,05,26,08,24,16.30
2017,05,26,08,25,16.40
2017,05,26,08,26,16.50
2017,05,26,08,27,16.50
2017,05,26,08,28,16.60
2017,05,26,08,29,16.80
2017,05,26,08,30,16.90
2017,05,26,08,31,16.90
2017,05,26,08,32,16.90
2017,05,26,08,33,16.90
2017,05,26,08,34,17.00
2017,05,26,08,35,17.10
2017,05,26,08,36,17.10
2017,05,26,08,37,17.20
2017,05,26,08,38,17.20
2017,05,26,08,39,17.30
2017,05,26,08,40,17.30
2017,05,26,08,41,17.30
2017,05,26,08,42,17.20
2017,05,26,08,43,17.20
2017,05,26,08,44,17.20
2017,05,26,08,45,17.20
2017,05,26,08,46,17.20
2017,05,26,08,47,17.20
2017,05,26,08,48,17.20
2017,05,26,08,49,17.20
2017,05,26,08,50,17.30
2017,05,26,08,51,17.20
2017,05,26,08,52,17.20
2017,05,26,08,53,17.20
2017,05,26,08,54,17.20
2017,05,26,08,55,17.20
2017,05,26,08,56,17.30
2017,05,26,08,57,17.30
2017,05,26,08,58,17.30
2017,05,26,08,59,17.30
2017,05,26,09,00,17.20
2017,05,26,09,01,17.20
2017,05,26,09,02,17.20
2017,05,26,09,03,17.30
2017,05,26,09,04,17.30
2017,05,26,09,05,17.20
2017,05,26,09,06,17.20
2017,05,26,09,07,17.20
2017,05,26,09,08,17.20
2017,05,26,09,09,17.20
2017,05,26,09,10,17.20
2017,05,26,09,11,17.20
2017,05,26,09,12,17.20
2017,05,26,09,13,17.30
2017,05,26,09,14,17.30
2017,05,26,09,15,17.40
2017,05,26,09,16,17.40
2017,05,26,09,17,17.30
2017,05,26,09,18,17.30
2017,05,26,09,19,17.20
2017,05,26,09,20,17.20
2017,05,26,09,21,17.10
2017,05,26,09,22,17.10
2017,05,26,09,23,17.10
2017,05,26,09,24,17.20
2017,05,26,09,25,17.20
2017,05,26,09,26,17.30
2017,05,26,09,27,17.30
2017,05,26,09,28,17.30
2017,05,26,09,29,17.30
2017,05,26,09,30,17.40
2017,05,26,09,31,17.50
2017,05,26,09,32,17.50
2017,05,26,09,33,17.60
2017,05,26,09,34,17.60
2017,05,26,09,35,17.60
2017,05,26,09,36,17.70
2017,05,26,09,37,17.70
2017,05,26,09,38,17.80
2017,05,26,09,39,17.70
2017,05,26,09,40,17.70
2017,05,26,09,41,17.70
2017,05,26,09,42,17.60
2017,05,26,09,43,17.50
2017,05,26,09,44,17.50
2017,05,26,09,45,17.60
2017,05,26,09,46,17.70
2017,05,26,09,47,17.70
2017,05,26,09,48,17.80
2017,05,26,09,49,17.90
2017,05,26,09,50,18.00
2017,05,26,09,51,18.00
2017,05,26,09,52,18.00
2017,05,26,09,53,17.90
2017,05,26,09,54,17.90
2017,05,26,09,55,17.90
2017,05,26,09,56,17.90
2017,05,26,09,57,17.80
2017,05,26,09,58,17.90
2017,05,26,09,59,17.90
2017,05,26,10,00,17.90
2017,05,26,10,01,17.90
2017,05,26,10,02,17.90
2017,05,26,10,03,17.90
2017,05,26,10,04,18.00
2017,05,26,10,05,18.10
2017,05,26,10,06,18.10
2017,05,26,10,07,18.10
2017,05,26,10,08,18.10
2017,05,26,10,09,18.10
2017,05,26,10,10,18.20
2017,05,26,10,11,18.20
2017,05,26,10,12,18.20
2017,05,26,10,13,18.30
2017,05,26,10,14,18.50
2017,05,26,10,15,18.60
2017,05,26,10,16,18.60
2017,05,26,10,17,18.60
2017,05,26,10,18,18.60
2017,05,26,10,19,18.40
2017,05,26,10,20,18.40
2017,05,26,10,21,18.40
2017,05,26,10,22,18.30
2017,05,26,10,23,18.30
2017,05,26,10,24,18.30
2017,05,26,10,25,18.30
2017,05,26,10,26,18.30
2017,05,26,10,27,18.40
2017,05,26,10,28,18.40
2017,05,26,10,29,18.30
2017,05,26,10,30,18.40
2017,05,26,10,31,18.50
2017,05,26,10,32,18.60
2017,05,26,10,33,18.60
2017,05,26,10,34,18.50
2017,05,26,10,35,18.40
2017,05,26,10,36,18.40
2017,05,26,10,37,18.40
2017,05,26,10,38,18.60
2017,05,26,10,39,18.70
2017,05,26,10,40,18.80
2017,05,26,10,41,18.90
2017,05,26,10,42,19.10
2017,05,26,10,43,19.10
2017,05,26,10,44,19.10
2017,05,26,10,45,19.10
2017,05,26,10,46,19.00
2017,05,26,10,47,19.00
2017,05,26,10,48,19.10
2017,05,26,10,49,19.10
2017,05,26,10,50,19.20
2017,05,26,10,51,19.20
2017,05,26,10,52,19.30
2017,05,26,10,53,19.30
2017,05,26,10,54,19.30
2017,05,26,10,55,19.20
2017,05,26,10,56,19.10
2017,05,26,10,57,19.00
2017,05,26,10,58,18.90
2017,05,26,10,59,18.90
2017,05,26,11,00,18.90
2017,05,26,11,01,18.90
2017,05,26,11,02,18.90
2017,05,26,11,03,18.80
2017,05,26,11,04,18.70
2017,05,26,11,05,18.70
2017,05,26,11,06,18.70
2017,05,26,11,07,18.70
2017,05,26,11,08,18.60
2017,05,26,11,09,18.60
2017,05,26,11,10,18.60
2017,05,26,11,11,18.70
2017,05,26,11,12,18.70
2017,05,26,11,13,18.80
2017,05,26,11,14,18.80
2017,05,26,11,15,18.70
2017,05,26,11,16,18.80
2017,05,26,11,17,18.80
2017,05,26,11,18,18.90
2017,05,26,11,19,19.00
2017,05,26,11,20,19.00
2017,05,26,11,21,19.00
2017,05,26,11,22,19.00
2017,05,26,11,23,19.00
2017,05,26,11,24,19.10
2017,05,26,11,25,19.20
2017,05,26,11,26,19.20
2017,05,26,11,27,19.20
2017,05,26,11,28,19.30
2017,05,26,11,29,19.20
2017,05,26,11,30,19.30
2017,05,26,11,31,19.40
2017,05,26,11,32,19.50
2017,05,26,11,33,19.50
2017,05,26,11,34,19.50
2017,05,26,11,35,19.50
2017,05,26,11,36,19.60
2017,05,26,11,37,19.80
2017,05,26,11,38,20.00
2017,05,26,11,39,20.00
2017,05,26,11,40,20.00
2017,05,26,11,41,19.90
2017,05,26,11,42,19.80
2017,05,26,11,43,19.80
2017,05,26,11,44,19.80
2017,05,26,11,45,19.80
2017,05,26,11,46,19.70
2017,05,26,11,47,19.70
2017,05,26,11,48,19.60
2017,05,26,11,49,19.50
2017,05,26,11,50,19.50
2017,05,26,11,51,19.50
2017,05,26,11,52,19.50
2017,05,26,11,53,19.60
2017,05,26,11,54,19.80
2017,05,26,11,55,19.90
2017,05,26,11,56,19.90
2017,05,26,11,57,19.90
2017,05,26,11,58,19.90
2017,05,26,11,59,19.90
2017,05,26,12,00,19.90
2017,05,26,12,01,19.80
2017,05,26,12,02,19.80
2017,05,26,12,03,19.90
2017,05,26,12,04,19.90
2017,05,26,12,05,19.90
2017,05,26,12,06,19.90
2017,05,26,12,07,20.00
2017,05,26,12,08,20.20
2017,05,26,12,09,20.40
2017,05,26,12,10,20.40
2017,05,26,12,11,20.40
2017,05,26,12,12,20.50
2017,05,26,12,13,20.50
2017,05,26,12,14,20.60
2017,05,26,12,15,20.60
2017,05,26,12,16,20.60
2017,05,26,12,17,20.60
2017,05,26,12,18,20.50
2017,05,26,12,19,20.50
2017,05,26,12,20,20.50
2017,05,26,12,21,20.50
2017,05,26,12,22,20.50
2017,05,26,12,23,20.50
2017,05,26,12,24,20.40
2017,05,26,12,25,20.30
2017,05,26,12,26,20.20
2017,05,26,12,27,20.10
2017,05,26,12,28,20.00
2017,05,26,12,29,19.90
2017,05,26,12,30,19.90
2017,05,26,12,31,19.90
2017,05,26,12,32,20.00
2017,05,26,12,33,20.00
2017,05,26,12,34,20.00
2017,05,26,12,35,20.10
2017,05,26,12,36,20.10
2017,05,26,12,37,20.10
2017,05,26,12,38,20.00
2017,05,26,12,39,20.00
2017,05,26,12,40,20.10
2017,05,26,12,41,20.20
2017,05,26,12,42,20.40
2017,05,26,12,43,20.50
2017,05,26,12,44,20.60
2017,05,26,12,45,20.60
2017,05,26,12,46,20.60
2017,05,26,12,47,20.60
2017,05,26,12,48,20.60
2017,05,26,12,49,20.60
2017,05,26,12,50,20.70
2017,05,26,12,51,20.70
2017,05,26,12,52,20.70
2017,05,26,12,53,20.80
2017,05,26,12,54,20.90
2017,05,26,12,55,20.80
2017,05,26,12,56,20.80
2017,05,26,12,57,20.80
2017,05,26,12,58,20.80
2017,05,26,12,59,20.90
2017,05,26,13,00,20.90
2017,05,26,13,01,20.90
2017,05,26,13,02,20.90
2017,05,26,13,03,20.90
2017,05,26,13,04,20.80
2017,05,26,13,05,20.80
2017,05,26,13,06,20.90
2017,05,26,13,07,21.00
2017,05,26,13,08,21.20
2017,05,26,13,09,21.30
2017,05,26,13,10,21.40
2017,05,26,13,11,21.40
2017,05,26,13,12,21.40
2017,05,26,13,13,21.30
2017,05,26,13,14,21.20
2017,05,26,13,15,21.20
2017,05,26,13,16,21.30
2017,05,26,13,17,21.30
2017,05,26,13,18,21.30
2017,05,26,13,19,21.50
2017,05,26,13,20,21.40
2017,05,26,13,21,21.40
2017,05,26,13,22,21.50
2017,05,26,13,23,21.60
2017,05,26,13,24,21.70
2017,05,26,13,25,21.80
2017,05,26,13,26,21.90
2017,05,26,13,27,22.00
2017,05,26,13,28,22.00
2017,05,26,13,29,22.10
2017,05,26,13,30,22.20
2017,05,26,13,31,22.30
2017,05,26,13,32,22.50
2017,05,26,13,33,22.70
2017,05,26,13,34,22.80
2017,05,26,13,35,22.70
2017,05,26,13,36,22.60
2017,05,26,13,37,22.50
2017,05,26,13,38,22.50
2017,05,26,13,39,22.40
2017,05,26,13,40,22.40
2017,05,26,13,41,22.40
2017,05,26,13,42,22.30
2017,05,26,13,43,22.30
2017,05,26,13,44,22.30
2017,05,26,13,45,22.30
2017,05,26,13,46,22.20
2017,05,26,13,47,22.20
2017,05,26,13,48,22.20
2017,05,26,13,49,22.20
2017,05,26,13,50,22.20
2017,05,26,13,51,22.20
2017,05,26,13,52,22.30
2017,05,26,13,53,22.30
2017,05,26,13,54,22.30
2017,05,26,13,55,22.30
2017,05,26,13,56,22.40
2017,05,26,13,57,22.40
2017,05,26,13,58,22.30
2017,05,26,13,59,22.30
2017,05,26,14,00,22.20
2017,05,26,14,01,22.20
2017,05,26,14,02,22.20
2017,05,26,14,03,22.20
2017,05,26,14,04,22.20
2017,05,26,14,05,22.20
2017,05,26,14,06,22.30
2017,05,26,14,07,22.40
2017,05,26,14,08,22.50
2017,05,26,14,09,22.70
2017,05,26,14,10,22.80
2017,05,26,14,11,22.80
2017,05,26,14,12,22.70
2017,05,26,14,13,22.70
2017,05,26,14,14,22.60
2017,05,26,14,15,22.50
2017,05,26,14,16,22.40
2017,05,26,14,17,22.30
2017,05,26,14,18,22.10
2017,05,26,14,19,21.90
2017,05,26,14,20,21.80
2017,05,26,14,21,21.70
2017,05,26,14,22,21.50
2017,05,26,14,23,21.50
2017,05,26,14,24,21.50
2017,05,26,14,25,21.50
2017,05,26,14,26,21.40
2017,05,26,14,27,21.30
2017,05,26,14,28,21.20
2017,05,26,14,29,21.20
2017,05,26,14,30,21.20
2017,05,26,14,31,21.30
2017,05,26,14,32,21.30
2017,05,26,14,33,21.20
2017,05,26,14,34,21.20
2017,05,26,14,35,21.10
2017,05,26,14,36,21.10
2017,05,26,14,37,21.20
2017,05,26,14,38,21.30
2017,05,26,14,39,21.50
2017,05,26,14,40,21.60
2017,05,26,14,41,21.60
2017,05,26,14,42,21.70
2017,05,26,14,43,21.90
2017,05,26,14,44,22.00
2017,05,26,14,45,22.10
2017,05,26,14,46,22.10
2017,05,26,14,47,22.00
2017,05,26,14,48,21.90
2017,05,26,14,49,21.80
2017,05,26,14,50,21.80
2017,05,26,14,51,21.90
2017,05,26,14,52,21.90
2017,05,26,14,53,21.90
2017,05,26,14,54,22.00
2017,05,26,14,55,22.10
2017,05,26,14,56,22.10
2017,05,26,14,57,22.20
2017,05,26,14,58,22.20
2017,05,26,14,59,22.10
2017,05,26,15,00,22.00
2017,05,26,15,01,22.00
2017,05,26,15,02,22.10
2017,05,26,15,03,22.10
2017,05,26,15,04,22.10
2017,05,26,15,05,22.20
2017,05,26,15,06,22.30
2017,05,26,15,07,22.40
2017,05,26,15,08,22.40
2017,05,26,15,09,22.40
2017,05,26,15,10,22.50
2017,05,26,15,11,22.50
2017,05,26,15,12,22.50
2017,05,26,15,13,22.50
2017,05,26,15,14,22.60
2017,05,26,15,15,22.60
2017,05,26,15,16,22.80
2017,05,26,15,17,22.90
2017,05,26,15,18,23.00
2017,05,26,15,19,23.10
2017,05,26,15,20,23.20
2017,05,26,15,21,23.20
2017,05,26,15,22,23.20
2017,05,26,15,23,23.20
2017,05,26,15,24,23.10
2017,05,26,15,25,23.20
2017,05,26,15,26,23.20
2017,05,26,15,27,23.20
2017,05,26,15,28,23.20
2017,05,26,15,29,23.30
2017,05,26,15,30,23.30
2017,05,26,15,31,23.30
2017,05,26,15,32,23.20
2017,05,26,15,33,22.90
2017,05,26,15,34,22.80
2017,05,26,15,35,22.70
2017,05,26,15,36,22.60
2017,05,26,15,37,22.60
2017,05,26,15,38,22.60
2017,05,26,15,39,22.70
2017,05,26,15,40,22.70
2017,05,26,15,41,22.70
2017,05,26,15,42,22.70
2017,05,26,15,43,22.70
2017,05,26,15,44,22.80
2017,05,26,15,45,22.90
2017,05,26,15,46,23.10
2017,05,26,15,47,23.40
2017,05,26,15,48,23.50
2017,05,26,15,49,23.60
2017,05,26,15,50,23.60
2017,05,26,15,51,23.70
2017,05,26,15,52,23.60
2017,05,26,15,53,23.60
2017,05,26,15,54,23.50
2017,05,26,15,55,23.50
2017,05,26,15,56,23.50
2017,05,26,15,57,23.50
2017,05,26,15,58,23.50
2017,05,26,15,59,23.50
2017,05,26,16,00,23.50
2017,05,26,16,01,23.60
2017,05,26,16,02,23.60
2017,05,26,16,03,23.60
2017,05,26,16,04,23.50
2017,05,26,16,05,23.40
2017,05,26,16,06,23.40
2017,05,26,16,07,23.40
2017,05,26,16,08,23.40
2017,05,26,16,09,23.40
2017,05,26,16,10,23.40
2017,05,26,16,11,23.40
2017,05,26,16,12,23.30
2017,05,26,16,13,23.20
2017,05,26,16,14,23.10
2017,05,26,16,15,22.90
2017,05,26,16,16,22.80
2017,05,26,16,17,22.70
2017,05,26,16,18,22.70
2017,05,26,16,19,22.70
2017,05,26,16,20,22.70
2017,05,26,16,21,22.60
2017,05,26,16,22,22.50
2017,05,26,16,23,22.50
2017,05,26,16,24,22.50
2017,05,26,16,25,22.50
2017,05,26,16,26,22.50
2017,05,26,16,27,22.50
2017,05,26,16,28,22.50
2017,05,26,16,29,22.50
2017,05,26,16,30,22.50
2017,05,26,16,31,22.60
2017,05,26,16,32,22.60
2017,05,26,16,33,22.60
2017,05,26,16,34,22.50
2017,05,26,16,35,22.60
2017,05,26,16,36,22.60
2017,05,26,16,37,22.60
2017,05,26,16,38,22.70
2017,05,26,16,39,22.60
2017,05,26,16,40,22.40
2017,05,26,16,41,22.20
2017,05,26,16,42,22.10
2017,05,26,16,43,22.00
2017,05,26,16,44,21.90
2017,05,26,16,45,21.90
2017,05,26,16,46,21.90
2017,05,26,16,47,21.90
2017,05,26,16,48,21.90
2017,05,26,16,49,21.90
2017,05,26,16,50,21.70
2017,05,26,16,51,21.60
2017,05,26,16,52,21.50
2017,05,26,16,53,21.50
2017,05,26,16,54,21.40
2017,05,26,16,55,21.30
2017,05,26,16,56,21.30
2017,05,26,16,57,21.30
2017,05,26,16,58,21.20
2017,05,26,16,59,21.20
2017,05,26,17,00,21.10
2017,05,26,17,01,21.00
2017,05,26,17,02,21.10
2017,05,26,17,03,21.10
2017,05,26,17,04,21.10
2017,05,26,17,05,21.10
2017,05,26,17,06,21.20
2017,05,26,17,07,21.20
2017,05,26,17,08,21.20
2017,05,26,17,09,21.20
2017,05,26,17,10,21.20
2017,05,26,17,11,21.10
2017,05,26,17,12,21.10
2017,05,26,17,13,21.10
2017,05,26,17,14,21.10
2017,05,26,17,15,21.10
2017,05,26,17,16,21.00
2017,05,26,17,17,21.00
2017,05,26,17,18,21.00
2017,05,26,17,19,21.10
2017,05,26,17,20,21.10
2017,05,26,17,21,21.20
2017,05,26,17,22,21.20
2017,05,26,17,23,21.20
2017,05,26,17,24,21.30
2017,05,26,17,25,21.20
2017,05,26,17,26,21.10
2017,05,26,17,27,21.00
2017,05,26,17,28,21.00
2017,05,26,17,29,21.00
2017,05,26,17,30,21.00